www.pogodaiklimat.ru

АРХИВ ПОГОДЫ в Tokyo

Время (UTC), дата Ветер
(напр.,м/с)
 
Видим.   Явления Облачность Т
(С)
Тd
(С)
f
(%)
Тe
(С)
Тes
(С)
Комфортность P
(гПа)
Po
(гПа)
Тmin
(С)
Tmax
(С)
R
(мм)
S
(см)
06 16.01 СЗ 6 40 км 1/1
[Cu med, cong Ac trans]
+7.3 -11.9 24 +4 +5 прохладно 1009.4 1006.4
07 16.01 СЗ 5 н/о н/о +6.7 -11.0 27 +3 +3 по сезону 1010.0 1007.0
08 16.01 СЗ 5 н/о н/о +5.7 -8.2 36 +2 +2 по сезону 1010.5 1007.5
09 16.01 СЗ 4 20 км 6/6
[Cu Sc]
+4.8 -6.7 43 +1 +1 прохладно 1011.4 1008.4
10 16.01 СЗ 4 н/о н/о +3.9 -5.3 51 0 0 по сезону 1012.2 1009.2
11 16.01 З 4 н/о н/о +4.1 -4.9 52 0 0 по сезону 1013.4 1010.4
12 16.01 СЗ 6 20 км 3/0
[Ac trans]
+4.0 -4.2 55 -1 -1 прохладно 1014.1 1011.1 +8.0
13 16.01 СЗ 4 н/о н/о +3.5 -3.5 60 -0 -0 по сезону 1014.5 1011.5
14 16.01 СЗ 4 н/о н/о +3.1 -4.1 59 -1 -1 по сезону 1014.6 1011.6
15 16.01 СЗ 3 н/о н/о +3.7 -4.5 55 +1 +1 по сезону 1014.9 1011.9
16 16.01 СЗ 2 н/о н/о +2.7 -4.3 60 0 0 тепло 1015.4 1012.4
17 16.01 СЗ 3 н/о н/о +2.9 -2.4 68 -0 -0 по сезону 1016.9 1013.9
18 16.01 СЗ 3 20 км 1/0
[Ac trans]
+2.7 -2.2 70 -1 -1 по сезону 1017.6 1014.6
19 16.01 СЗ 2 н/о н/о +2.0 -2.1 74 -1 -1 по сезону 1018.2 1015.2
20 16.01 СЗ 2 н/о н/о +1.5 -2.8 73 -1 -1 по сезону 1019.1 1016.0
21 16.01 СЗ 2 20 км 1/1
[Sc]
+1.2 -3.1 73 -1 -1 прохладно 1019.8 1016.7
22 16.01 С 1 н/о н/о +1.4 -2.7 74 -0 -0 по сезону 1021.0 1017.9
23 16.01 С 2 н/о н/о +3.0 -2.1 69 0 0 по сезону 1021.6 1018.6
00 17.01 С 2 40 км 1/1
[Cu med, cong Ac trans]
+4.8 -1.9 62 +3 +6 по сезону 1023.4 1020.4 +0.7
01 17.01 СВ 2 н/о н/о +6.8 -1.1 57 +5 +5 тепло 1023.7 1020.7
02 17.01 С 4 н/о н/о +8.2 -3.0 45 +6 +6 тепло 1022.9 1019.9
03 17.01 СЗ 4 40 км 1/1
[Cu med, cong]
+9.2 -3.0 42 +7 +12 по сезону 1022.3 1019.3
04 17.01 С 2 н/о н/о +9.7 -3.9 38 +9 +9 тепло 1021.8 1018.8
05 17.01 СЗ 5 н/о н/о +10.5 -5.5 32 +8 +8 тепло 1022.1 1019.1
06 17.01 С 3 30 км 1/1
[Cu med, cong]
+9.7 -5.4 34 +8 +10 по сезону 1022.6 1019.6
07 17.01 С 3 н/о н/о +9.2 -4.4 38 +7 +7 тепло 1022.9 1019.9
08 17.01 С 3 н/о н/о +8.2 -3.3 44 +6 +6 по сезону 1023.7 1020.7
09 17.01 С 3 30 км 1/1
[Cu hum]
+7.2 -3.6 46 +5 +5 по сезону 1024.5 1021.5
10 17.01 СЗ 3 н/о н/о +6.3 -3.6 49 +4 +4 тепло 1025.8 1022.8
11 17.01 СЗ 2 н/о н/о +5.5 -3.3 53 +4 +4 по сезону 1026.6 1023.6
12 17.01 СВ 2 20 км 1/1
[Cu hum Ac trans]
+4.1 -3.0 60 +2 +2 по сезону 1026.8 1023.8 +10.9
13 17.01 СВ 2 н/о н/о +4.5 -3.0 58 +2 +2 тепло 1027.0 1024.0
14 17.01 СЗ 2 н/о н/о +4.5 -2.6 60 +2 +2 по сезону 1027.5 1024.5
15 17.01 З 2 н/о н/о +3.5 -3.1 62 +2 +2 по сезону 1027.6 1024.5
16 17.01 С 2 н/о н/о +4.5 -2.6 60 +2 +2 тепло 1027.8 1024.8
17 17.01 С 2 н/о н/о +3.3 -2.8 64 +1 +1 по сезону 1028.4 1025.3
18 17.01 С 1 20 км ясно +2.6 -2.9 67 +1 +1 по сезону 1028.3 1025.2
19 17.01 С 2 н/о н/о +3.0 -4.0 60 +1 +1 тепло 1028.2 1025.1
20 17.01 СЗ 3 н/о н/о +2.5 -4.0 62 -1 -1 по сезону 1028.6 1025.5
21 17.01 С 2 20 км 1/1
[Sc]
+1.8 -3.7 67 -1 -1 прохладно 1029.1 1026.0
22 17.01 С 2 н/о н/о +1.5 -4.3 65 -2 -2 по сезону 1029.3 1026.2
23 17.01 С 2 н/о н/о +2.0 -3.5 67 -1 -1 по сезону 1029.8 1026.7
00 18.01 С 3 30 км 1/1
[Cu Sc]
+4.6 -2.9 58 +2 +4 по сезону 1030.0 1026.9 +1.1
01 18.01 С 2 н/о н/о +6.2 -2.7 53 +4 +4 тепло 1029.6 1026.6
02 18.01 СВ 3 н/о н/о +6.7 -3.5 48 +5 +5 по сезону 1028.6 1025.6
03 18.01 В 2 25 км 6/1
[Sc Ac trans]
+8.1 -2.8 46 +7 +11 по сезону 1027.0 1024.0
04 18.01 ЮВ 2 н/о н/о +8.9 -3.9 40 +8 +8 тепло 1026.1 1023.1
05 18.01 ЮВ 3 н/о н/о +9.5 -2.8 42 +8 +8 тепло 1025.5 1022.5
06 18.01 Ю 4 20 км 8/1
[Cu hum Ac trans Ci sp]
+8.9 -3.0 43 +7 +7 по сезону 1025.6 1022.6
07 18.01 Ю 3 н/о н/о +8.8 -1.3 49 +7 +7 тепло 1025.0 1022.0
08 18.01 Ю 3 н/о н/о +8.3 -1.8 49 +6 +6 по сезону 1024.5 1021.5
09 18.01 Ю 4 20 км 6/1
[Cu hum Ci sp]
+7.5 -2.0 51 +5 +5 по сезону 1024.6 1021.6
10 18.01 Ю 3 н/о н/о +5.9 -0.6 63 +3 +3 тепло 1024.2 1021.2
11 18.01 Ю 3 н/о н/о +7.1 +0.6 63 +4 +4 по сезону 1023.6 1020.6
12 18.01 Ю 3 20 км 9/1
[Cu hum Ac trans Ci sp]
+7.8 +1.4 64 +5 +5 по сезону 1023.2 1020.2 +10.3
13 18.01 ЮЗ 2 н/о н/о +8.0 +1.6 64 +6 +6 тепло 1022.2 1019.2

 

Местоположение метеостанции Tokyo (Япония): широта 35.68 долгота 139.76 высота над уровнем моря 36 м.

В архиве по умолчанию представлена погода в Tokyo за последнюю неделю. Архивные данные за месяц целиком и за предыдущие месяцы, начиная с января 2011 года, Вы можете получить, выбрав интересующий диапазон дат из раскрывающегося списка и нажав кнопку "Ввод!".

Внимание! Время в таблицах - всемирное. Для получения местного времени необходимо прибавить поправку, которая в Tokyo равна 9 ч.

Ветер - указаны скорость ветра в м/с - средняя за 10 мин, порывы в срок и между сроками (в фигурных скобках) и направление, откуда дует ветер: С - северный, СВ - северо-восточный, В - восточный, ЮВ - юго-восточный, Ю - южный, ЮЗ - юго-западный, З - западный, СЗ - северо-западный.
Видимость - горизонтальная дальность видимости в метрах или километрах. При видимости от 1 до 10 км при отсутствии осадков обычно наблюдается дымка, при ухудшении видимости до 1 км и менее - туман. В сухую погоду видимость может ухудшаться дымом, пылью или мглою.
Явления - указаны атмосферные явления, наблюдавшиеся в срок или в последний час перед сроком; фигурными скобками обозначены явления, наблюдавшиеся между сроками (за 1-3 часа до срока); квадратными скобками обозначены град или гололедные отложения с указанием их диаметра в мм.
Облачность - указаны через наклонную черту общая и нижняя облачность в баллах и высота нижней границы облаков в метрах; квадратными скобками обозначены формы облаков: Ci - перистые, Cs - перисто-слоистые, Cc - перисто-кучевые, Ac - высококучевые, As - высокослоистые, Sc - слоисто-кучевые, Ns - слоисто-дождевые, Cu - кучевые, Cb - кучево-дождевые. Подробнее классификацию облаков см. в Атласе облаков (PDF).
T - Температура воздуха - температура, измеренная на высоте 2 м над землей.
Td - Температура точки росы - температура, при понижении до которой содержащийся в воздухе водяной пар достигнет насыщения.
f - Относительная влажность воздуха - влажноcть воздуха, измеренная на высоте 2 м над землей.
Te - Эффективная температура - температура, которую ощущает одетый по сезону человек в тени. Характеристика душности погоды. При расчете учитывается влияние влажности воздуха и скорости ветра на теплоощущения человека.
Tes - Эффективная температура на солнце - температура, которую ощущает человек, с поправкой на солнечный нагрев. Характеристика знойности погоды. Зависит от высоты солнца над горизонтом, облачности и скорости ветра. Ночью, в пасмурную погоду, а также при ветре 12 м/с и более поправка равна нулю.
P - Атмосферное давление - приведенное к уровню моря атмосферное давление.
Po - Атмосферное давление - измеренное на уровне метеостанции атмосферное давление.
Tmin - Минимальная температура - минимум температуры воздуха на высоте 2 м над землей.
Tmax - Максимальная температура - максимум температуры воздуха на высоте 2 м над землей.
R - Количество осадков - Количество выпавших осадков, мм. При наведении курсора мыши на число - период времени, за который выпало указанное количество осадков.
S - Снежный покров - Высота снежного покрова, см. При наведении курсора мыши на число - состояние снежного покрова и степень покрытия местности в баллах.